Preview of NWS' New Version of Forecast
This preview is not operational and should not be used for support decisions.

Regional Weather Roundup (RWR)

Issued by National Weather Service (NWS)

                            
000
ASUS43 KDTX 161401
RWRMI 
MICHIGAN HOURLY REGIONAL WEATHER ROUNDUP
NATIONAL WEATHER SERVICE DETROIT/PONTIAC MI
1000 AM EDT SUN JUN 16 2019

NOTE: "FAIR" INDICATES FEW OR NO CLOUDS BELOW 12,000 FEET WITH NO
SIGNIFICANT WEATHER AND/OR OBSTRUCTION TO VISIBILITY.

MIZ047>049-052>055-059>063-066>070-074>076-081>083-161500-
SOUTHEAST LOWER MICHIGAN
  
CITY           SKY/WX    TMP DP  RH WIND       PRES   REMARKS
ADRIAN         LGT RAIN  60  58  92 E8        29.82S                  
ALMA           CLOUDY    58  51  77 NE7       29.89S                  
ANN ARBOR      LGT RAIN  56  55  97 E6        29.83F FOG              
BAD AXE        PTSUNNY   56  49  76 NE7       29.91R                  
CARO           CLOUDY    58  49  71 NE3       29.89S                  
DETROIT CITY   RAIN      56  53  90 N7        29.85S FOG              
DETROIT        LGT RAIN  56  53  90 NE6       29.84S FOG              
FLINT          RAIN      54  49  83 NE6       29.88R                  
GROSSE ILE     RAIN      58  57  96 NE7       29.82F                  
HILLSDALE      LGT RAIN  60  58  96 NE8       29.81S                  
HOWELL         HVY RAIN  52  49  90 NE5       29.86S                  

CITY           SKY/WX    TMP DP  RH WIND       PRES   REMARKS
JACKSON        LGT RAIN  57  57 100 N8        29.84R FOG              
LAMBERTVILLE   DRIZZLE   61  61 100 NE3       29.82S                  
LANSING        RAIN      53  50  89 NE6       29.88R FOG              
LAPEER         CLOUDY    55  48  75 CALM      29.88S                  
MASON          LGT RAIN  53  50  92 NE8       29.87R                  
MONROE         RAIN      60  60  98 NE7       29.82S                  
MT. CLEMENS    LGT RAIN  56  56 100 N6        29.85R                  
PONTIAC        LGT RAIN  53  52  96 NE7       29.85R FOG              
PORT HOPE        N/A     52  46  80 NE10      29.91R                  
PORT HURON     HVY RAIN  55  50  82 N3        29.88R                  
TRI CITIES     CLOUDY    58  52  80 NE12      29.90S                  
MIDLAND        CLOUDY    58  50  75 NE7       29.90S                  
TROY           RAIN      55  52  90 NE7       29.87S                  
SAGINAW HB     CLOUDY    59  50  72 NE9       29.89S                  
$$
MIZ043>046-050>051-056>058-064>065-071>073-077>080-161500-
SOUTHWEST LOWER MICHIGAN
  
CITY           SKY/WX    TMP DP  RH WIND       PRES   REMARKS
BATTLE CREEK   LGT RAIN  58  57  97 NE10      29.83R                  
BENTON HARBOR  CLOUDY    64  61  90 E9G18     29.80R                  
BIG RAPIDS     CLOUDY    57  48  70 SE8       29.88S                  
COLDWATER      CLOUDY    61  61 100 NE8       29.82R                  
FREMONT        CLOUDY    58  44  58 E12G17    29.85S                  
HOLLAND        HVY RAIN  57  51  80 E10       29.83F                  
GRAND RAPIDS   LGT RAIN  56  48  74 E10       29.86R                  
IONIA          RAIN      53  47  80 NE8       29.87S                  
KALAMAZOO      CLOUDY    61  58  90 NE7       29.82S                  
LUDINGTON      CLOUDY    58  50  73 NE7       29.87S                  
MARSHALL       LGT RAIN  59  59 100 NE6       29.82S                  
MOUNT PLEASANT CLOUDY    57  48  72 NE7       29.89S                  
MUSKEGON       CLOUDY    60  44  55 E9        29.84S                  
SOUTH HAVEN    CLOUDY    62  60  94 E8        29.80S                  
$$
MIZ016>042-161500-
NORTHERN LOWER MICHIGAN
  
CITY           SKY/WX    TMP DP  RH WIND       PRES   REMARKS
ALPENA         FAIR      58  48  69 NE8       29.97R                  
BEAVER ISLAND  FAIR      53  47  81 E9G16     29.97S                  
BELLAIRE       FAIR      56  47  72 NE5       29.94S                  
CADILLAC       DRIZZLE   55  50  85 NE5       29.90F                  
CHARLEVOIX     FAIR      57  48  72 E9        29.97S                  
FRANKFORT      PTSUNNY   58  44  61 E5        29.90F                  
GAYLORD        FAIR      51  46  83 E7        29.94R                  
GRAYLING       FAIR      55  49  80 E7        29.92S                  
HARBOR SPRINGS FAIR      56  49  80 E12G18    29.96S                  
HOUGHTON LAKE  PTSUNNY   56  45  66 E6        29.92S                  
MANISTEE       CLOUDY    55  47  74 E7        29.89S                  
OSCODA         FAIR      55  47  76 NE9       29.94R                  
PELLSTON       FAIR      56  48  74 E9G18     29.97S                  
ROGERS CITY    FAIR      51  46  82 E6        29.99R                  
TRAVERSE CITY  CLOUDY    53  46  77 NE7       29.92S                  
$$
MIZ007>008-015-161500-
EASTERN UPPER MICHIGAN
  
CITY           SKY/WX    TMP DP  RH WIND       PRES   REMARKS
KINROSS        FAIR      54  47  77 E7        29.98R                  
MACKINAC ISLAN FAIR      53  49  86 E6G17     29.97S                  
NEWBERRY       FAIR      54  49  83 E7        29.97S                  
S. S. MARIE    FAIR      57  48  72 VRB3      29.97R                  
MUNISING         N/A     51  44  77 CALM      29.97R                  
$$
MIZ004>006-011>014-085-161500-
CENTRAL UPPER MICHIGAN
  
CITY           SKY/WX    TMP DP  RH WIND       PRES   REMARKS
ESCANABA       FAIR      54  46  74 NE8       29.96S                  
MENOMINEE      PTSUNNY   52  46  80 NE6       29.95S                  
SAWYER-GWINN   SUNNY     54  45  71 E5        29.97R                  
$$
MIZ001>003-009>011-084-161500-
WESTERN UPPER MICHIGAN
  
CITY           SKY/WX    TMP DP  RH WIND       PRES   REMARKS
IRON MOUNTAIN  FAIR      55  43  63 NE8       29.95R                  
HOUGHTON       FAIR      52  43  71 E8        29.98R                  
COPPER HARBOR    N/A     47  43  86 VRB5      30.00R                  
IRONWOOD       FAIR      55  42  61 E6        29.96S                  
$$

ABBREVIATIONS USED IN REMARKS
   TC - TEMPERATURE IN CELSIUS
  WCI - WIND CHILL INDEX
   HX - HEAT INDEX
  VSB - VISIBILITY